Location: *
(57.8420°S, 159.8600°W)
Time: 04:02:30
(UTC+00:00)

Cosmos 1939 Rocket - Pass Details

Date: 18 May 2021
Orbit: 531 x 584 km, 97.4° (Epoch: 23 June)

Event Time Altitude Azimuth Distance (km) Brightness Sun altitude
Exits shadow 05:40:36 30° 349° (N) 1,067 4.3 -25.1°
Drops below altitude 10° 05:42:47 10° 346° (NNW) 1,929 5.7 -25.4°
Sets 05:44:57 0° 345° (NNW) 2,823 6.6 -25.7°
